Location: St. Louis
(38.6270°N, 90.1994°W)
Time: 13:48:35
(UTC-05:00)

ISS - Pass Details

Date: 09 December 2013
Orbit: 401 x 404 km, 51.6° (Epoch: 30 July)

Event Time Altitude Azimuth Distance (km) Brightness Sun altitude
Rises 17:22:29 0° 261° (W) 2,435 2.5 -8.4°
Reaches altitude 10° 17:24:54 10° 276° (W) 1,550 0.7 -8.8°
Maximum altitude 17:27:48 24° 332° (NNW) 938 -1.4 -9.4°
Drops below altitude 10° 17:30:39 10° 29° (NNE) 1,516 -0.9 -9.9°
Enters shadow 17:30:50 - 31° (NNE) 1,579 -0.8 -9.9°
